[[{"header":{"parameterUnit":"m.s-1","parameterCategory":1,"la1":30.2991,"la2":30.254,"lo1":-89.0895,"lo2":-89.0444,"dy":0.0017,"dx":0.0017,"nx":28,"ny":28,"refTime":"2025-08-20T21:00:00:Z","depth":0,"parameterNumber":2,"parameterNumberName":"U-component_of_WINDS"},"data":[0,0,0,0,0,0,0,0,0,0,0,0,0,0,0,0,0,0,0,0,0,0,0,0,0,0,0,0,0,0,0,0,0,0,0,0,0,0,0,0,0,0,0,0,0,0,0,0,0,0,0,0,0,0,0,0,0,0,1.6439,1.644,0,1.6613,1.6615,1.6617,1.6702,1.6702,1.6701,1.6701,1.6879,1.6884,1.6888,0,0,0,0,0,0,0,0,0,0,0,0,0,1.6177,1.6181,1.6438,1.6441,1.6443,1.6613,1.6615,1.6618,1.6702,1.6702,1.6701,1.6701,1.6877,1.6883,1.6889,0,0,0,0,0,0,0,0,0,0,0,0,0,1.6314,1.6182,1.6438,1.6505,1.6513,1.6612,1.6615,1.6618,1.6702,1.6702,1.6701,1.6701,1.6875,1.6882,1.6889,1.6935,0,0,1.6911,1.6914,0,0,0,0,0,0,0,0,1.6307,1.6324,1.6493,1.6501,1.651,1.6636,1.6588,1.6724,1.6702,1.663,1.6701,1.6701,1.6798,1.6811,1.6844,1.6943,1.6951,1.6912,1.6916,1.6919,1.6921,0,0,0,0,0,0,0,1.6297,1.6317,1.6508,1.6495,1.6506,1.6526,1.6546,1.6614,1.6712,1.6636,1.6643,1.6662,1.6802,1.6837,1.6849,1.6953,1.6912,1.6918,1.6922,1.6925,1.71,1.71,0,0,0,0,0,0,1.6277,1.6308,1.6502,1.6513,1.6406,1.6531,1.6553,1.6595,1.6712,1.6729,1.6662,1.6666,1.6825,1.6841,1.6856,1.6917,1.6919,1.6926,1.693,1.7099,1.71,1.71,0,0,0,0,0,0,1.6271,1.6293,1.6495,1.6413,1.644,1.6536,1.6582,1.6599,1.6634,1.6731,1.6749,1.668,1.6826,1.6846,1.6915,1.6925,1.6929,1.6936,1.7099,1.7099,1.71,1.704,0,0,0,0,0,0,1.6263,1.629,1.6309,1.6412,1.6444,1.6551,1.6583,1.6602,1.6646,1.6652,1.6753,1.6769,1.6827,1.6904,1.6922,1.6935,1.6941,1.7098,1.7099,1.71,1.7042,1.7038,1.7036,0,0,0,0,0,1.6253,1.6284,1.6309,1.6332,1.6469,1.6552,1.657,1.6636,1.6646,1.6665,1.6728,1.6766,1.692,1.691,1.6931,1.6946,1.7098,1.7099,1.71,1.7043,1.7039,1.7036,0,0,0,0,0,0,1.6178,1.6299,1.6328,1.6394,1.6462,1.6566,1.6592,1.663,1.6696,1.6699,1.6778,1.68,1.6862,1.6911,1.6898,1.6997,1.7013,1.7018,1.6963,1.696,1.6957,1.6944,1.6947,0,0,0,0,0,1.6169,1.6227,1.6329,1.6377,1.641,1.6495,1.6533,1.6579,1.6652,1.6681,1.675,1.6819,1.6884,1.6924,1.6989,1.7049,1.7073,1.707,1.7067,1.7064,1.7068,1.7104,1.7104,1.7103,1.7103,1.7103,0,0,1.6152,1.6225,1.6256,1.6364,1.6422,1.648,1.6519,1.6578,1.6621,1.669,1.676,1.6813,1.6896,1.6961,1.6993,1.7004,1.7073,1.7065,1.7062,1.7067,1.7105,1.7105,1.7105,1.7103,1.7103,1.7103,0,0,1.6149,1.621,1.6257,1.6315,1.6403,1.646,1.6471,1.6569,1.6607,1.6679,1.6732,1.6785,1.6894,1.6952,1.6995,1.7015,1.7053,1.7034,1.7019,1.7054,1.7054,1.7054,1.7062,1.7064,1.7037,1.7037,1.7037,0,1.6115,1.6205,1.6276,1.6333,1.6379,1.6446,1.6494,1.6547,1.6651,1.6681,1.6692,1.6831,1.6891,1.6971,1.6976,1.7009,1.7025,1.7023,1.7048,1.7049,1.7051,1.7059,1.7062,1.7034,1.7035,1.7035,1.7035,0,1.616,1.6221,1.6249,1.6349,1.6398,1.645,1.6529,1.6571,1.6612,1.6667,1.674,1.6815,1.6897,1.6919,1.696,1.7005,1.7009,1.7033,1.7051,1.7047,1.7056,1.706,1.703,1.7031,1.7032,1.7033,0,0,1.6113,1.6254,1.6263,1.6309,1.6412,1.6461,1.6516,1.6597,1.6631,1.6701,1.675,1.6841,1.6864,1.6913,1.6961,1.6991,1.7004,1.7012,1.7015,1.7008,1.706,1.7041,1.7044,1.7029,1.703,1.7031,1.7053,0,1.6125,1.6228,1.6295,1.6371,1.6429,1.6494,1.6542,1.661,1.6664,1.6721,1.678,1.6843,1.6868,1.6899,1.6932,1.6995,1.7015,1.6994,1.7076,1.7078,1.7053,1.7049,1.7029,1.7046,1.7057,1.7058,1.7058,0,1.6152,1.6222,1.6304,1.6402,1.6429,1.6471,1.6551,1.6604,1.6683,1.672,1.6776,1.6825,1.6886,1.6899,1.6985,1.6969,1.7007,1.7043,1.7045,1.7055,1.7067,1.7059,1.7053,1.7056,1.7064,1.7064,1.7063,0,1.6111,1.6225,1.6289,1.6327,1.6443,1.6471,1.652,1.6599,1.6644,1.6714,1.6744,1.6819,1.686,1.6918,1.6986,1.6989,1.7066,1.7084,1.7098,1.7096,1.7111,1.7109,1.7112,1.7135,1.7135,1.7135,1.7134,0,1.6117,1.6164,1.6272,1.6312,1.6368,1.6444,1.6497,1.6552,1.6622,1.6673,1.6734,1.678,1.6868,1.6925,1.6979,1.7043,1.7061,1.7092,1.7106,1.7087,1.7083,1.7113,1.7113,1.7135,1.7135,1.7135,1.7135,0,1.6079,1.6153,1.6228,1.6332,1.6359,1.6396,1.6485,1.6526,1.6583,1.6647,1.6667,1.6756,1.6827,1.6901,1.6997,1.7034,1.7096,1.7114,1.7069,1.7077,1.7087,1.7085,1.7109,1.7116,1.7133,1.7133,1.7132,0,1.6078,1.6117,1.6225,1.6264,1.6313,1.6375,1.6421,1.6498,1.6544,1.6637,1.6667,1.6743,1.6808,1.6919,1.6992,1.7067,1.7088,1.7091,1.7099,1.708,1.7089,1.7086,1.709,1.7088,1.7087,1.7087,1.7086,0,1.6068,1.6103,1.6168,1.6246,1.63,1.6365,1.6432,1.6461,1.6551,1.6599,1.6673,1.6723,1.6823,1.6897,1.6981,1.7032,1.7074,1.7083,1.7091,1.7072,1.7044,1.706,1.7061,1.7082,1.7083,1.7083,1.7083,1.7083,1.6049,1.6087,1.617,1.624,1.6299,1.6361,1.6405,1.6469,1.6532,1.6619,1.6661,1.6735,1.6814,1.6931,1.6981,1.704,1.7052,1.7063,1.7066,1.7067,1.7063,1.7035,1.7056,1.7056,1.7056,1.7056,1.7057,0,1.6042,1.6099,1.6164,1.6257,1.6312,1.6348,1.6425,1.6469,1.6534,1.6605,1.6668,1.6754,1.6827,1.6907,1.6985,1.7017,1.7039,1.7035,1.7034,1.7045,1.7047,1.7033,1.7017,1.7017,1.7017,1.7017,1.7017,1.7017,1.6045,1.6112,1.6157,1.6254,1.6311,1.6385,1.6425,1.6483,1.654,1.6633,1.6695,1.6747,1.6822,1.6906,1.6975,1.6997,1.7023,1.7014,1.7041,1.7042,1.7045,1.7048,1.7035,1.7019,1.7019,1.7035,1.7035,1.7035]},{"header":{"parameterUnit":"m.s-1","parameterCategory":1,"la1":30.2991,"la2":30.254,"lo1":-89.0895,"lo2":-89.0444,"dy":0.0017,"dx":0.0017,"nx":28,"ny":28,"refTime":"2025-08-20T21:00:00:Z","depth":0,"parameterNumber":3,"parameterNumberName":"V-component_of_WINDS"},"data":[0,0,0,0,0,0,0,0,0,0,0,0,0,0,0,0,0,0,0,0,0,0,0,0,0,0,0,0,0,0,0,0,0,0,0,0,0,0,0,0,0,0,0,0,0,0,0,0,0,0,0,0,0,0,0,0,0,0,-2.881,-2.8807,0,-2.8594,-2.8592,-2.8589,-2.8507,-2.8508,-2.8509,-2.8509,-2.8275,-2.8268,-2.8262,0,0,0,0,0,0,0,0,0,0,0,0,0,-2.9138,-2.9132,-2.881,-2.8807,-2.8804,-2.8595,-2.8592,-2.8589,-2.8507,-2.8508,-2.8509,-2.851,-2.8277,-2.8269,-2.8261,0,0,0,0,0,0,0,0,0,0,0,0,0,-2.8966,-2.913,-2.881,-2.8739,-2.873,-2.8595,-2.8591,-2.8588,-2.8507,-2.8508,-2.8509,-2.851,-2.828,-2.827,-2.826,-2.8176,0,0,-2.8228,-2.8224,0,0,0,0,0,0,0,0,-2.8976,-2.8954,-2.8752,-2.8744,-2.8734,-2.8579,-2.8621,-2.8449,-2.8507,-2.8591,-2.8509,-2.8511,-2.8374,-2.8357,-2.8313,-2.8165,-2.8155,-2.8228,-2.8221,-2.8217,-2.8214,0,0,0,0,0,0,0,-2.8988,-2.8963,-2.8724,-2.8749,-2.8738,-2.8713,-2.869,-2.8588,-2.8479,-2.8584,-2.8578,-2.8554,-2.837,-2.8324,-2.8307,-2.8151,-2.8228,-2.8219,-2.8212,-2.8208,-2.792,-2.7919,0,0,0,0,0,0,-2.9013,-2.8973,-2.8731,-2.8718,-2.886,-2.8707,-2.8681,-2.8627,-2.848,-2.8459,-2.8553,-2.8551,-2.8341,-2.8319,-2.8299,-2.8189,-2.8217,-2.8207,-2.8201,-2.7922,-2.792,-2.7919,0,0,0,0,0,0,-2.9021,-2.8993,-2.874,-2.8844,-2.881,-2.87,-2.8641,-2.8623,-2.8577,-2.8457,-2.8436,-2.8527,-2.8341,-2.8313,-2.8207,-2.818,-2.8203,-2.8193,-2.7924,-2.7921,-2.7919,-2.7971,0,0,0,0,0,0,-2.9031,-2.8996,-2.8966,-2.8844,-2.8804,-2.8656,-2.8639,-2.8618,-2.8561,-2.8556,-2.8427,-2.8407,-2.8339,-2.8223,-2.8197,-2.8166,-2.8185,-2.7925,-2.7923,-2.792,-2.7971,-2.7971,-2.797,0,0,0,0,0,-2.9043,-2.8986,-2.8965,-2.8936,-2.8765,-2.8655,-2.8632,-2.8559,-2.8559,-2.8526,-2.8449,-2.8411,-2.8188,-2.8213,-2.8183,-2.8149,-2.7927,-2.7923,-2.792,-2.7971,-2.7971,-2.797,0,0,0,0,0,0,-2.9103,-2.8969,-2.8944,-2.8847,-2.8764,-2.8642,-2.8597,-2.8561,-2.8473,-2.8471,-2.8381,-2.8352,-2.8253,-2.819,-2.8221,-2.8058,-2.8054,-2.8045,-2.8103,-2.8102,-2.8102,-2.8118,-2.8177,0,0,0,0,0,-2.9107,-2.9032,-2.8917,-2.8843,-2.8803,-2.8708,-2.8657,-2.8609,-2.8516,-2.8479,-2.8394,-2.8303,-2.8212,-2.8153,-2.8063,-2.7962,-2.7931,-2.7923,-2.7923,-2.7923,-2.7915,-2.7855,-2.7849,-2.7908,-2.7908,-2.7908,0,0,-2.911,-2.9028,-2.8985,-2.8853,-2.8783,-2.8703,-2.8678,-2.8596,-2.8535,-2.8465,-2.8361,-2.8296,-2.8187,-2.8083,-2.8033,-2.8027,-2.7893,-2.7919,-2.792,-2.7912,-2.7851,-2.7845,-2.7841,-2.7905,-2.7906,-2.7906,0,0,-2.9077,-2.9008,-2.8939,-2.8869,-2.8765,-2.8702,-2.8686,-2.8569,-2.8524,-2.8419,-2.8365,-2.8289,-2.8135,-2.8059,-2.8001,-2.7939,-2.79,-2.7912,-2.7909,-2.7851,-2.7847,-2.7842,-2.7818,-2.7811,-2.7905,-2.7905,-2.7905,0,-2.9093,-2.8977,-2.8906,-2.8827,-2.8769,-2.8707,-2.8633,-2.8568,-2.8437,-2.8396,-2.8393,-2.8199,-2.8121,-2.7998,-2.7983,-2.7939,-2.7913,-2.7925,-2.7854,-2.7849,-2.7843,-2.7819,-2.7811,-2.7907,-2.7907,-2.7907,-2.7907,0,-2.9001,-2.8921,-2.8876,-2.8757,-2.8693,-2.8617,-2.8531,-2.8475,-2.8432,-2.8369,-2.8261,-2.8166,-2.8055,-2.8022,-2.7978,-2.7892,-2.7892,-2.7873,-2.7866,-2.7841,-2.7817,-2.7807,-2.791,-2.7909,-2.7909,-2.7908,0,0,-2.8998,-2.8843,-2.8827,-2.8772,-2.8652,-2.8586,-2.8506,-2.8402,-2.8354,-2.8266,-2.8193,-2.8065,-2.8047,-2.798,-2.7927,-2.7876,-2.7831,-2.7863,-2.7859,-2.7858,-2.7727,-2.7741,-2.7732,-2.7805,-2.7803,-2.7802,-2.7736,0,-2.8948,-2.8807,-2.8741,-2.8627,-2.855,-2.849,-2.8419,-2.8335,-2.8274,-2.8196,-2.8125,-2.8035,-2.802,-2.7979,-2.7927,-2.7848,-2.7803,-2.7852,-2.7733,-2.7729,-2.7761,-2.772,-2.7734,-2.7677,-2.7726,-2.7724,-2.7723,0,-2.887,-2.8787,-2.8667,-2.8556,-2.8521,-2.8459,-2.8358,-2.8286,-2.8188,-2.8146,-2.8073,-2.8022,-2.7931,-2.7933,-2.7803,-2.7838,-2.7785,-2.7739,-2.7735,-2.7719,-2.7724,-2.7701,-2.7657,-2.7648,-2.7708,-2.7709,-2.771,0,-2.8878,-2.8735,-2.8645,-2.8599,-2.8468,-2.8426,-2.8368,-2.8272,-2.8214,-2.8123,-2.8084,-2.7983,-2.7927,-2.7848,-2.7769,-2.7778,-2.7646,-2.7642,-2.7605,-2.7607,-2.7578,-2.7581,-2.7523,-2.7548,-2.7548,-2.7548,-2.7549,0,-2.8827,-2.8755,-2.8647,-2.8591,-2.8507,-2.8431,-2.8348,-2.8286,-2.8201,-2.8128,-2.8069,-2.8001,-2.7902,-2.782,-2.7758,-2.7659,-2.7634,-2.7594,-2.7578,-2.7599,-2.7604,-2.7561,-2.7562,-2.7546,-2.7546,-2.7547,-2.7547,0,-2.8822,-2.8747,-2.8644,-2.8529,-2.8498,-2.8442,-2.8341,-2.8282,-2.8218,-2.8127,-2.8101,-2.7999,-2.7899,-2.7814,-2.7682,-2.7639,-2.7537,-2.7518,-2.7571,-2.7562,-2.7529,-2.7533,-2.7441,-2.7424,-2.7463,-2.7463,-2.7462,0,-2.8794,-2.8738,-2.8618,-2.8568,-2.8513,-2.8431,-2.8372,-2.8293,-2.8233,-2.8119,-2.8072,-2.797,-2.7884,-2.7728,-2.7638,-2.7537,-2.7513,-2.7488,-2.7497,-2.7519,-2.751,-2.7514,-2.7507,-2.7487,-2.7487,-2.7487,-2.7487,0,-2.8751,-2.8717,-2.8637,-2.8543,-2.8476,-2.8397,-2.8316,-2.8277,-2.8182,-2.8117,-2.8017,-2.7951,-2.7818,-2.7716,-2.7604,-2.7539,-2.7496,-2.7486,-2.7471,-2.7491,-2.7523,-2.7503,-2.7568,-2.7488,-2.7488,-2.7488,-2.7488,-2.7488,-2.8731,-2.8678,-2.8587,-2.8499,-2.8431,-2.8357,-2.8296,-2.8226,-2.8143,-2.8032,-2.7989,-2.7887,-2.7788,-2.7635,-2.757,-2.7485,-2.7478,-2.7458,-2.7452,-2.7448,-2.7451,-2.7539,-2.7465,-2.7465,-2.7465,-2.7464,-2.7464,0,-2.8684,-2.8623,-2.8543,-2.8434,-2.8364,-2.8335,-2.8243,-2.8185,-2.8098,-2.8012,-2.793,-2.7814,-2.7714,-2.7618,-2.7513,-2.7463,-2.7441,-2.7438,-2.7439,-2.7425,-2.7464,-2.7486,-2.7458,-2.7458,-2.7458,-2.7458,-2.7458,-2.7458,-2.8651,-2.856,-2.8515,-2.8388,-2.8325,-2.8228,-2.8178,-2.8108,-2.8039,-2.7915,-2.7834,-2.7774,-2.7682,-2.7569,-2.7475,-2.7449,-2.7412,-2.7414,-2.7382,-2.742,-2.7422,-2.7424,-2.7444,-2.7408,-2.7407,-2.735,-2.7349,-2.7349]}]]